When you browse on this site, cookies collect data to enhance your experience and personalize the content and advertising you see.
Visit our Privacy Policy to learn more. By continuing to use the site, you agree to this use of cookies and data.
  • In Romania
  • List of Countries
  • For 7 days
  • Water Temperature
  • Satellite Maps
  • Weather Map
  • Weather Widgets
  • user-avatar
    Login

    Hourly Weather Gubin

    Today, 23 March, Saturday

    Time Temperature Precipitation Wind Pressure Humidity
    00:00 +8°C° 0 mm 2 mps 767 mmHg 93%
    01:00 +8°C° 0 mm 2 mps 766 mmHg 94%
    02:00 +8°C° 0 mm 2 mps 766 mmHg 93%
    03:00 +8°C° 0 mm 2 mps 766 mmHg 93%
    04:00 +8°C° 0 mm 2 mps 765 mmHg 92%
    05:00 +9°C° 0 mm 2 mps 765 mmHg 91%
    06:00 +9°C° 0 mm 2 mps 765 mmHg 90%
    07:00 +9°C° 0 mm 2 mps 765 mmHg 89%
    08:00 +12°C° 0 mm 2 mps 765 mmHg 80%
    09:00 +14°C° 0 mm 2 mps 765 mmHg 71%
    10:00 +16°C° 0 mm 3 mps 765 mmHg 63%
    11:00 +18°C° 0 mm 3 mps 765 mmHg 60%
    12:00 +19°C° 0 mm 3 mps 765 mmHg 57%
    13:00 +20°C° 0 mm 3 mps 765 mmHg 53%
    14:00 +20°C° 0 mm 3 mps 764 mmHg 54%
    15:00 +19°C° 0 mm 4 mps 764 mmHg 55%
    16:00 +19°C° 0 mm 4 mps 764 mmHg 56%
    17:00 +17°C° 0 mm 4 mps 765 mmHg 62%
    18:00 +15°C° 0 mm 4 mps 765 mmHg 67%
    19:00 +13°C° 0 mm 4 mps 765 mmHg 73%
    20:00 +12°C° 0 mm 3 mps 766 mmHg 77%
    21:00 +10°C° 0 mm 3 mps 766 mmHg 81%
    22:00 +9°C° 0 mm 2 mps 767 mmHg 85%
    23:00 +8°C° 0 mm 2 mps 767 mmHg 85%

    Tomorrow, 24 March, Sunday

    Time Temperature Precipitation Wind Pressure Humidity
    00:00 +8°C° 0 mm 2 mps 767 mmHg 86%
    01:00 +7°C° 0 mm 2 mps 767 mmHg 87%
    02:00 +6°C° 0 mm 2 mps 767 mmHg 87%
    03:00 +7°C° 0 mm 1 mps 767 mmHg 87%
    04:00 +6°C° 0 mm 1 mps 767 mmHg 87%
    05:00 +6°C° 0 mm 1 mps 767 mmHg 86%
    06:00 +6°C° 0 mm 1 mps 767 mmHg 84%
    07:00 +6°C° 0 mm 1 mps 767 mmHg 83%
    08:00 +8°C° 0 mm 1 mps 767 mmHg 72%
    09:00 +9°C° 0 mm 1 mps 767 mmHg 61%
    10:00 +11°C° 0 mm 1 mps 767 mmHg 51%
    11:00 +12°C° 0 mm 1 mps 766 mmHg 47%
    12:00 +12°C° 0 mm 1 mps 765 mmHg 43%
    13:00 +13°C° 0 mm 2 mps 765 mmHg 39%
    14:00 +13°C° 0 mm 2 mps 764 mmHg 39%
    15:00 +13°C° 0 mm 2 mps 764 mmHg 40%
    16:00 +13°C° 0 mm 2 mps 763 mmHg 40%
    17:00 +10°C° 0 mm 2 mps 763 mmHg 45%
    18:00 +9°C° 0 mm 2 mps 763 mmHg 50%
    19:00 +8°C° 0 mm 2 mps 763 mmHg 55%
    20:00 +8°C° 0 mm 1 mps 763 mmHg 58%
    21:00 +7°C° 0 mm 1 mps 763 mmHg 61%
    22:00 +6°C° 0 mm 1 mps 763 mmHg 64%
    23:00 +6°C° 0 mm 1 mps 762 mmHg 65%

    Day after tomorrow, 25 March, Monday

    Time Temperature Precipitation Wind Pressure Humidity
    00:00 +4°C° 0 mm 2 mps 762 mmHg 66%
    01:00 +4°C° 0 mm 2 mps 761 mmHg 67%
    02:00 +4°C° 0 mm 2 mps 761 mmHg 70%
    03:00 +3°C° 0 mm 2 mps 760 mmHg 73%
    04:00 +2°C° 0 mm 3 mps 760 mmHg 76%
    05:00 +2°C° 0 mm 3 mps 759 mmHg 75%
    06:00 +1°C° 0 mm 4 mps 759 mmHg 75%
    07:00 +1°C° 0 mm 5 mps 759 mmHg 74%
    08:00 +2°C° 0.2 mm 6 mps 758 mmHg 74%
    09:00 +3°C° 0.2 mm 6 mps 758 mmHg 74%
    10:00 +3°C° 0.2 mm 7 mps 758 mmHg 74%
    11:00 +4°C° 0.4 mm 7 mps 757 mmHg 67%
    12:00 +5°C° 0.4 mm 7 mps 757 mmHg 60%
    13:00 +6°C° 0.4 mm 7 mps 757 mmHg 53%
    14:00 +6°C° 0.4 mm 7 mps 757 mmHg 54%
    15:00 +6°C° 0.4 mm 7 mps 757 mmHg 56%
    16:00 +5°C° 0.4 mm 7 mps 757 mmHg 58%
    17:00 +5°C° 0.4 mm 6 mps 758 mmHg 64%
    18:00 +5°C° 0.4 mm 5 mps 758 mmHg 70%
    19:00 +3°C° 0.4 mm 5 mps 759 mmHg 76%
    20:00 +2°C° 0 mm 5 mps 760 mmHg 78%
    21:00 +2°C° 0 mm 5 mps 761 mmHg 80%
    22:00 +2°C° 0 mm 5 mps 762 mmHg 82%
    23:00 +1°C° 0 mm 4 mps 763 mmHg 85%

    26 March, Tuesday

    Time Temperature Precipitation Wind Pressure Humidity
    00:00 +1°C° 0 mm 4 mps 764 mmHg 88%
    01:00 +1°C° 0 mm 3 mps 765 mmHg 90%
    02:00 +1°C° 0 mm 3 mps 765 mmHg 92%
    03:00 +1°C° 0 mm 3 mps 766 mmHg 94%
    04:00 +1°C° 0 mm 2 mps 766 mmHg 95%
    05:00 +1°C° 0 mm 2 mps 767 mmHg 94%
    06:00 +1°C° 0 mm 2 mps 767 mmHg 93%
    07:00 +2°C° 0 mm 2 mps 768 mmHg 93%
    08:00 +2°C° 0 mm 3 mps 768 mmHg 85%
    09:00 +4°C° 0 mm 3 mps 768 mmHg 77%
    10:00 +5°C° 0 mm 4 mps 768 mmHg 69%
    11:00 +6°C° 0 mm 4 mps 768 mmHg 60%
    12:00 +7°C° 0 mm 5 mps 767 mmHg 50%
    13:00 +8°C° 0 mm 6 mps 767 mmHg 41%
    14:00 +8°C° 0 mm 6 mps 767 mmHg 48%
    15:00 +7°C° 0 mm 6 mps 767 mmHg 56%
    16:00 +7°C° 0 mm 6 mps 766 mmHg 63%
    17:00 +5°C° 0 mm 6 mps 766 mmHg 67%
    18:00 +5°C° 0 mm 5 mps 767 mmHg 70%
    19:00 +5°C° 0 mm 4 mps 767 mmHg 74%
    20:00 +5°C° 0.1 mm 4 mps 767 mmHg 76%
    21:00 +5°C° 0.1 mm 4 mps 767 mmHg 78%
    22:00 +5°C° 0.1 mm 4 mps 767 mmHg 80%
    23:00 +4°C° 0 mm 4 mps 767 mmHg 83%

    27 March, Wednesday

    Time Temperature Precipitation Wind Pressure Humidity
    00:00 +4°C° 0 mm 4 mps 767 mmHg 85%
    01:00 +3°C° 0 mm 4 mps 767 mmHg 88%
    02:00 +4°C° 0 mm 4 mps 767 mmHg 87%
    03:00 +4°C° 0 mm 4 mps 766 mmHg 87%
    04:00 +4°C° 0 mm 4 mps 766 mmHg 86%
    05:00 +4°C° 0.2 mm 4 mps 766 mmHg 87%
    06:00 +4°C° 0.2 mm 4 mps 766 mmHg 87%
    07:00 +4°C° 0.2 mm 4 mps 766 mmHg 88%
    08:00 +4°C° 0.4 mm 4 mps 766 mmHg 87%
    09:00 +5°C° 0.4 mm 4 mps 766 mmHg 86%
    10:00 +5°C° 0.4 mm 4 mps 766 mmHg 85%
    11:00 +6°C° 0.1 mm 4 mps 766 mmHg 82%
    12:00 +6°C° 0.1 mm 4 mps 766 mmHg 80%
    13:00 +7°C° 0.1 mm 4 mps 766 mmHg 78%
    14:00 +7°C° 0.3 mm 4 mps 765 mmHg 80%
    15:00 +7°C° 0.3 mm 4 mps 765 mmHg 83%
    16:00 +7°C° 0.3 mm 4 mps 765 mmHg 85%
    17:00 +7°C° 0.6 mm 4 mps 765 mmHg 87%
    18:00 +7°C° 0.6 mm 4 mps 765 mmHg 90%
    19:00 +7°C° 0.6 mm 3 mps 765 mmHg 92%
    20:00 +7°C° 0.1 mm 3 mps 766 mmHg 94%
    21:00 +7°C° 0.1 mm 2 mps 766 mmHg 95%
    22:00 +7°C° 0.1 mm 2 mps 766 mmHg 96%
    23:00 +6°C° 0 mm 2 mps 767 mmHg 96%

    28 March, Thursday

    Time Temperature Precipitation Wind Pressure Humidity
    00:00 +6°C° 0 mm 2 mps 767 mmHg 97%
    01:00 +5°C° 0 mm 2 mps 768 mmHg 97%
    02:00 +6°C° 0 mm 1 mps 768 mmHg 97%
    03:00 +6°C° 0 mm 1 mps 768 mmHg 97%
    04:00 +7°C° 0 mm 1 mps 768 mmHg 96%
    05:00 +6°C° 0 mm 1 mps 769 mmHg 96%
    06:00 +6°C° 0 mm 1 mps 769 mmHg 95%
    07:00 +6°C° 0 mm 1 mps 770 mmHg 95%
    08:00 +7°C° 0 mm 1 mps 770 mmHg 90%
    09:00 +7°C° 0 mm 2 mps 771 mmHg 85%
    10:00 +7°C° 0 mm 2 mps 771 mmHg 80%
    11:00 +8°C° 0 mm 2 mps 771 mmHg 78%
    12:00 +9°C° 0 mm 1 mps 771 mmHg 76%
    13:00 +9°C° 0 mm 1 mps 771 mmHg 75%
    14:00 +9°C° 0 mm 1 mps 771 mmHg 74%
    15:00 +9°C° 0 mm 1 mps 771 mmHg 73%
    16:00 +9°C° 0 mm 1 mps 771 mmHg 73%
    17:00 +8°C° 0 mm 1 mps 771 mmHg 77%
    18:00 +7°C° 0 mm 1 mps 771 mmHg 81%
    19:00 +6°C° 0 mm 1 mps 772 mmHg 86%
    20:00 +5°C° 0 mm 0 mps 772 mmHg 87%
    21:00 +4°C° 0 mm 0 mps 772 mmHg 88%
    22:00 +4°C° 0 mm 0 mps 772 mmHg 89%
    23:00 +4°C° 0 mm 0 mps 772 mmHg 89%
    Show more